Location: Kalberh�ni
(46.4610°N, 7.2453°E)
Time: 17:48:39
(UTC+00:00)

Meteor 2-1 Rocket - Pass Details

Date: 25 October 2021
Orbit: 830 x 906 km, 81.3° (Epoch: 28 November)

Event Time Altitude Azimuth Distance (km) Brightness Sun altitude
Rises 04:30:40 0° 1° (N) 3,386 7.4 -16.4°
Reaches altitude 10° 04:33:56 10° 21° (NNE) 2,451 6.9 -15.9°
Maximum altitude 04:37:35 18° 62° (ENE) 1,971 7.0 -15.2°
Drops below altitude 10° 04:41:13 10° 103° (ESE) 2,457 8.0 -14.6°
Sets 04:44:29 0° 123° (ESE) 3,398 8.5 -14.0°
